Regional Weather Roundup
Issued by NWS

Home | Current Version | Previous Version | Graphics & Text | Print | Product List | Glossary On
Versions: 1 2 3 4 5 6 7 8 9 10 11 12 13 14 15 16 17 18 19 20 21 22 23 24 25 26 27 28 29 30 31 32 33 34 35 36 37 38 39 40 41 42 43 44 45 46 47 48 49 50
000
ASUS43 KLMK 251610
RWRKY
KENTUCKY REGIONAL WEATHER ROUNDUP
NATIONAL WEATHER SERVICE LOUISVILLE KY
1200 PM EDT MON SEP 25 2017

NOTE "FAIR" INDICATES FEW OR NO CLOUDS BELOW 12,000 FEET
WITH NO SIGNIFICANT WEATHER AND/OR OBSTRUCTIONS TO VISIBILITY.

KYZ001>023-026-027-061>063-070>075-251700-
WESTERN AND SOUTH CENTRAL KENTUCKY

CITY           SKY/WX    TMP DP  RH WIND       PRES   REMARKS
PADUCAH        SUNNY     86  66  51 VRB3      30.03S
HENDERSON      SUNNY     85  68  56 N5        30.04F
OWENSBORO      SUNNY     87  69  54 VRB6      30.04F HX  91
HOPKINSVILLE   SUNNY     84  66  55 CALM      30.04F
BOWLING GREEN  SUNNY     85  67  54 CALM      30.05F
GLASGOW        SUNNY     85  67  53 CALM      30.06S
$$

KYZ024-025-028>034-038-045-046-053-251700-
NORTH CENTRAL KENTUCKY

CITY           SKY/WX    TMP DP  RH WIND       PRES   REMARKS
LOUISVILLE/SDF MOSUNNY   86  68  54 CALM      30.05S
LOUISVILLE/LOU SUNNY     83  69  62 CALM      30.06S
FORT KNOX      SUNNY     84  66  53 CALM      30.04F
$$

KYZ035>037-039>044-047>052-055>060-089>105-251700-
NORTHEAST KENTUCKY

CITY           SKY/WX    TMP DP  RH WIND       PRES   REMARKS
LEXINGTON      MOSUNNY   84  65  52 N5        30.08S
COVINGTON      PTSUNNY   82  64  54 W3        30.07F
FRANKFORT      SUNNY     83  64  52 CALM      30.06F
$$

KYZ054-064>069-076>088-106>120-251700-
SOUTHEAST KENTUCKY

CITY           SKY/WX    TMP DP  RH WIND       PRES   REMARKS
JACKSON        MOSUNNY   78  63  59 CALM      30.10F
LONDON         MOSUNNY   76  61  59 CALM      30.09S
SOMERSET       MOSUNNY   77  61  57 CALM      30.09S
MIDDLESBORO    MOSUNNY   76  63  62 CALM      30.10S
MONTICELLO     MOSUNNY   81  66  60 VRB7      30.09S
$$





USA.gov is the U.S. government's official web portal to all federal, state and local government web resources and services.